EW4723 Weather Reports


time (UTC)temp
C
wind
direction
speed
KPH
gust
KPH
rain 1hr
cm
rain 24hr
cm
rain mn
cm
humidity
%
barometer
mb
20260503224524 23 249 1.6 8.0 0.00 0.00 0.00 39 1010.8
20260503224025 23 314 3.2 8.0 0.00 0.00 0.00 41 1010.9
20260503223526 23 263 3.2 8.0 0.00 0.00 0.00 40 1011.0
20260503223023 23 276 1.6 8.0 0.00 0.00 0.00 37 1011.1
20260503222521 23 248 1.6 6.4 0.00 0.00 0.00 40 1011.2
20260503222320 23 23 3.2 9.7 0.00 0.00 0.00 40 1011.2
20260503221521 23 30 3.2 11.3 0.00 0.00 0.00 39 1011.2
20260503221021 23 322 3.2 11.3 0.00 0.00 0.00 41 1011.3
20260503220522 23 213 1.6 9.7 0.00 0.00 0.00 41 1011.5
20260503220023 23 292 1.6 9.7 0.00 0.00 0.00 41 1011.5
20260503215813 22 286 1.6 11.3 0.00 0.00 0.00 42 1011.6
20260503215010 23 19 3.2 11.3 0.00 0.00 0.00 44 1011.6
20260503214752 22 232 3.2 11.3 0.00 0.00 0.00 42 1011.6
20260503213958 22 245 3.2 11.3 0.00 0.00 0.00 42 1011.7
20260503213452 22 334 1.6 9.7 0.00 0.00 0.00 42 1011.8
20260503212946 23 167 1.6 6.4 0.00 0.00 0.00 46 1011.9
20260503212440 23 292 1.6 6.4 0.00 0.00 0.00 45 1011.8
20260503211935 23 318 1.6 11.3 0.00 0.00 0.00 46 1011.8
20260503211434 22 344 1.6 11.3 0.00 0.00 0.00 50 1011.9
20260503210933 22 254 1.6 9.7 0.00 0.00 0.00 50 1012.0
20260503210434 22 246 1.6 9.7 0.00 0.00 0.00 50 1011.9
20260503205931 21 257 1.6 8.0 0.00 0.00 0.00 49 1012.1
20260503205433 21 318 3.2 8.0 0.00 0.00 0.00 50 1012.1
20260503204930 21 272 1.6 6.4 0.00 0.00 0.00 53 1012.2
20260503204433 21 0 0.0 4.8 0.00 0.00 0.00 52 1012.2
20260503203933 21 355 1.6 11.3 0.00 0.00 0.00 51 1012.2
20260503203429 20 275 3.2 11.3 0.00 0.00 0.00 55 1012.2
20260503203222 21 286 3.2 9.7 0.00 0.00 0.00 51 1012.2
20260503202427 20 185 3.2 14.5 0.00 0.00 0.00 52 1012.2
20260503201928 21 281 3.2 14.5 0.00 0.00 0.00 49 1012.2
20260503201427 21 288 4.8 14.5 0.00 0.00 0.00 50 1012.2
20260503200928 21 277 3.2 14.5 0.00 0.00 0.00 47 1012.2
20260503200426 21 298 1.6 11.3 0.00 0.00 0.00 47 1012.3
20260503195927 22 283 1.6 6.4 0.00 0.00 0.00 48 1012.5
20260503195427 21 310 1.6 6.4 0.00 0.00 0.00 47 1012.5
20260503194927 21 316 1.6 9.7 0.00 0.00 0.00 53 1012.5
20260503194427 21 268 1.6 9.7 0.00 0.00 0.00 47 1012.6
20260503193927 21 251 1.6 9.7 0.00 0.00 0.00 52 1012.7
20260503193429 20 338 3.2 11.3 0.00 0.00 0.00 49 1012.8
20260503193218 20 257 3.2 11.3 0.00 0.00 0.00 53 1012.8
20260503192717 20 271 3.2 9.7 0.00 0.00 0.00 53 1013.0
20260503191926 20 254 3.2 9.7 0.00 0.00 0.00 53 1013.0
20260503191428 20 297 3.2 14.5 0.00 0.00 0.00 50 1013.0
20260503190927 20 11 3.2 14.5 0.00 0.00 0.00 53 1013.0
20260503190427 20 318 1.6 8.0 0.00 0.00 0.00 56 1013.1
20260503190304 20 336 1.6 9.7 0.00 0.00 0.00 54 1013.1
20260503190258 20 285 3.2 9.7 0.00 0.00 0.00 56 1013.1
20260503184930 20 169 1.6 14.5 0.00 0.00 0.00 54 1013.1
20260503184431 19 301 3.2 14.5 0.00 0.00 0.00 60 1013.1
20260503183928 19 308 3.2 9.7 0.00 0.00 0.00 53 1013.2
20260503183438 19 288 1.6 9.7 0.00 0.00 0.00 56 1013.4
20260503183218 20 276 1.6 4.8 0.00 0.00 0.00 54 1013.4
20260503182428 20 329 1.6 6.4 0.00 0.00 0.00 54 1013.4
20260503181926 20 49 3.2 11.3 0.00 0.00 0.00 57 1013.4
20260503181815 20 275 1.6 11.3 0.00 0.00 0.00 54 1013.5
20260503181807 20 267 3.2 11.3 0.00 0.00 0.00 57 1013.5
20260503180426 20 263 1.6 11.3 0.00 0.00 0.00 54 1013.6
20260503180221 19 267 1.6 11.3 0.00 0.00 0.00 54 1013.6
20260503175424 19 294 1.6 11.3 0.00 0.00 0.00 58 1013.7
20260503174921 18 276 1.6 11.3 0.00 0.00 0.00 57 1013.7
20260503174713 18 42 0.0 4.8 0.00 0.00 0.00 60 1013.8
20260503173917 18 273 1.6 4.8 0.00 0.00 0.00 60 1013.9
20260503173416 18 272 1.6 11.3 0.00 0.00 0.00 61 1013.9
20260503172913 18 277 1.6 11.3 0.00 0.00 0.00 59 1013.9
20260503172412 18 355 1.6 8.0 0.00 0.00 0.00 61 1013.9
20260503171913 17 46 1.6 8.0 0.00 0.00 0.00 63 1013.9
20260503171407 17 269 1.6 8.0 0.00 0.00 0.00 66 1014.0
20260503171149 17 32 1.6 8.0 0.00 0.00 0.00 64 1014.0
20260503170650 17 14 1.6 8.0 0.00 0.00 0.00 65 1014.0
20260503150637 15 263 1.6 4.8 0.00 0.00 0.00 68 1014.3
20260503150131 15 355 1.6 4.8 0.00 0.00 0.00 68 1014.2
20260503131055 13 316 1.6 6.4 0.00 0.00 0.00 72 1013.7
20260503130837 14 260 1.6 9.7 0.00 0.00 0.00 72 1013.7
20260503110540 13 271 1.6 8.0 0.00 0.00 0.00 72 1013.9
20260503090505 11 315 0.0 0.0 0.00 0.00 0.00 82 1013.7
20260503081424 11 218 0.0 4.8 0.00 0.00 0.00 80 1013.6
20260503080918 11 289 0.0 4.8 0.00 0.00 0.00 80 1013.6
20260503080412 12 287 0.0 4.8 0.00 0.00 0.00 80 1013.5
20260503072830 12 289 1.6 4.8 0.00 0.00 0.00 78 1013.5
20260503072326 12 286 1.6 4.8 0.00 0.00 0.00 77 1013.5
20260503071818 12 284 1.6 4.8 0.00 0.00 0.00 77 1013.5
20260503071312 12 284 1.6 4.8 0.00 0.00 0.00 77 1013.5
20260503070806 12 284 0.0 4.8 0.00 0.00 0.00 77 1013.5
20260503070259 12 283 0.0 4.8 0.00 0.00 0.00 76 1013.5
20260503060149 13 277 1.6 3.2 0.00 0.00 0.00 68 1013.5
20260503054631 14 262 0.0 3.2 0.00 0.00 0.00 69 1013.4
20260503054125 13 262 0.0 3.2 0.00 0.00 0.00 69 1013.4
20260503053619 13 262 0.0 3.2 0.00 0.00 0.00 70 1013.4
20260503053113 13 262 0.0 3.2 0.00 0.00 0.00 69 1013.5
20260503052607 13 262 0.0 3.2 0.00 0.00 0.00 70 1013.5
20260503052101 13 262 0.0 3.2 0.00 0.00 0.00 70 1013.5
20260503051555 13 287 0.0 0.0 0.00 0.00 0.00 70 1013.4
20260503051049 13 287 0.0 0.0 0.00 0.00 0.00 70 1013.5
20260503050543 13 287 0.0 0.0 0.00 0.00 0.00 69 1013.4
20260503050038 14 287 0.0 0.0 0.00 0.00 0.00 69 1013.4
20260503045531 14 287 0.0 4.8 0.00 0.00 0.00 69 1013.4
20260503045026 14 287 0.0 6.4 0.00 0.00 0.00 68 1013.4
20260503044607 14 287 0.0 4.8 0.00 0.00 0.00 68 1013.3
20260503044555 14 287 0.0 6.4 0.00 0.00 0.00 68 1013.3
20260503043522 14 287 1.6 4.8 0.00 0.00 0.00 70 1013.3
20260503043023 14 285 0.0 3.2 0.00 0.00 0.00 70 1013.3
20260503042523 14 285 0.0 3.2 0.00 0.00 0.00 68 1013.2
20260503042022 14 284 0.0 0.0 0.00 0.00 0.00 70 1013.2
20260503041522 14 284 0.0 3.2 0.00 0.00 0.00 69 1013.2
20260503041258 14 284 0.0 4.8 0.00 0.00 0.00 70 1013.2
20260503040518 14 284 0.0 4.8 0.00 0.00 0.00 68 1013.2
20260503040018 14 293 0.0 4.8 0.00 0.00 0.00 70 1013.1
20260503035516 14 293 0.0 4.8 0.00 0.00 0.00 70 1013.0
20260503035015 14 293 1.6 4.8 0.00 0.00 0.00 70 1012.9
20260503034834 14 293 0.0 6.4 0.00 0.00 0.00 71 1012.9
20260503034014 15 293 0.0 6.4 0.00 0.00 0.00 70 1012.8
20260503033511 15 310 0.0 0.0 0.00 0.00 0.00 69 1012.8
20260503033302 15 310 0.0 0.0 0.00 0.00 0.00 71 1012.7
20260503032751 15 310 0.0 3.2 0.00 0.00 0.00 69 1012.7
20260503032009 15 310 0.0 3.2 0.00 0.00 0.00 70 1012.6
20260503031510 15 310 0.0 3.2 0.00 0.00 0.00 69 1012.6
20260503031003 15 310 0.0 3.2 0.00 0.00 0.00 69 1012.7
20260503030504 15 310 0.0 3.2 0.00 0.00 0.00 67 1012.7
20260503030003 16 310 0.0 4.8 0.00 0.00 0.00 66 1012.6
20260503025503 16 310 0.0 4.8 0.00 0.00 0.00 65 1012.6
20260503025003 16 311 0.0 4.8 0.00 0.00 0.00 63 1012.6
20260503024502 16 311 0.0 4.8 0.00 0.00 0.00 61 1012.5
20260503024249 17 313 1.6 6.4 0.00 0.00 0.00 62 1012.6
20260503023500 17 284 1.6 6.4 0.00 0.00 0.00 63 1012.6
20260503022957 17 276 0.0 4.8 0.00 0.00 0.00 60 1012.6
20260503022454 17 305 0.0 4.8 0.00 0.00 0.00 60 1012.7
20260503021955 17 36 1.6 3.2 0.00 0.00 0.00 62 1012.7
20260503021452 18 36 1.6 6.4 0.00 0.00 0.00 60 1012.6
20260503020952 18 301 1.6 6.4 0.00 0.00 0.00 60 1012.7
20260503020739 18 0 1.6 4.8 0.00 0.00 0.00 56 1012.7
20260503015949 18 304 1.6 6.4 0.00 0.00 0.00 54 1012.8
20260503015447 18 320 0.0 6.4 0.00 0.00 0.00 56 1012.8
20260503014948 19 78 0.0 4.8 0.00 0.00 0.00 53 1012.8
20260503014448 19 313 0.0 4.8 0.00 0.00 0.00 54 1012.8
20260503014241 20 342 0.0 4.8 0.00 0.00 0.00 55 1012.9
20260503013448 20 344 1.6 4.8 0.00 0.00 0.00 55 1012.9
20260503012947 20 0 1.6 4.8 0.00 0.00 0.00 54 1013.0
20260503012450 20 263 1.6 6.4 0.00 0.00 0.00 49 1013.0
20260503012238 20 22 1.6 6.4 0.00 0.00 0.00 48 1013.0
20260503011817 20 329 1.6 6.4 0.00 0.00 0.00 52 1013.1
20260503011811 20 332 1.6 6.4 0.00 0.00 0.00 53 1013.1
20260503010441 20 326 1.6 6.4 0.00 0.00 0.00 58 1013.1
20260503005943 20 244 1.6 4.8 0.00 0.00 0.00 53 1013.2
20260503005442 20 11 1.6 4.8 0.00 0.00 0.00 49 1013.2
20260503004943 20 331 1.6 4.8 0.00 0.00 0.00 53 1013.2
20260503004438 20 309 1.6 6.4 0.00 0.00 0.00 49 1013.2
20260503003937 20 201 1.6 6.4 0.00 0.00 0.00 49 1013.3
20260503003438 20 339 3.2 8.0 0.00 0.00 0.00 50 1013.2
20260503003220 20 355 3.2 9.7 0.00 0.00 0.00 48 1013.3
20260503002439 20 5 3.2 9.7 0.00 0.00 0.00 49 1013.2
20260503001933 20 331 3.2 8.0 0.00 0.00 0.00 49 1013.3
20260503001428 20 355 3.2 8.0 0.00 0.00 0.00 53 1013.4
20260503000919 20 355 1.6 8.0 0.00 0.00 0.00 50 1013.4
20260503000415 20 18 1.6 6.4 0.00 0.00 0.00 50 1013.5
20260502235944 20 240 3.2 8.0 0.00 0.00 0.00 51 1013.5
20260502235933 20 206 1.6 6.4 0.00 0.00 0.00 54 1013.5
20260502234855 20 298 3.2 11.3 0.00 0.00 0.00 51 1013.5
20260502234350 20 320 3.2 11.3 0.00 0.00 0.00 53 1013.7
20260502233843 20 347 3.2 9.7 0.00 0.00 0.00 51 1013.7
20260502233338 20 119 3.2 11.3 0.00 0.00 0.00 50 1013.7
20260502233120 20 333 3.2 11.3 0.00 0.00 0.00 50 1013.8
20260502232325 21 355 3.2 9.7 0.00 0.00 0.00 50 1013.8
20260502231820 20 198 3.2 9.7 0.00 0.00 0.00 51 1013.9
20260502231313 20 339 3.2 9.7 0.00 0.00 0.00 52 1014.0
20260502230808 20 244 3.2 9.7 0.00 0.00 0.00 53 1014.0
20260502230302 20 36 3.2 9.7 0.00 0.00 0.00 52 1014.1
20260502225755 20 303 3.2 11.3 0.00 0.00 0.00 54 1014.2
20260502225540 20 325 3.2 11.3 0.00 0.00 0.00 54 1014.3